H1 CPF 2 NER 2021 6 5 9 156 01 glonass137 H2 1705501 9137 42939 2021 6 5 0 0 0 2021 6 8 23 45 0 900 1 1 0 0 0 1 H9 10 0 59370 0.00000 0 22742206.188 -4629123.776 -10593138.284 10 0 59370 900.00000 0 23867892.744 -4759281.351 -7656910.250 10 0 59370 1800.00000 0 24611854.045 -4940280.393 -4572033.155 10 0 59370 2700.00000 0 24959777.553 -5118282.770 -1398412.894 10 0 59370 3600.00000 0 24910486.676 -5238478.566 1802345.994 10 0 59370 4500.00000 0 24475912.344 -5247639.507 4968135.643 10 0 59370 5400.00000 0 23680535.089 -5096609.122 8037548.224 10 0 59370 6300.00000 0 22560321.641 -4742624.114 10951063.934 10 0 59370 7200.00000 0 21161201.288 -4151368.747 13652200.680 10 0 59370 8100.00000 0 19537146.333 -3298675.330 16088603.427 10 0 59370 9000.00000 0 17747937.177 -2171798.803 18213052.671 10 0 59370 9900.00000 0 15856705.492 -770211.382 19984373.012 10 0 59370 10800.00000 0 13927357.798 894116.891 21368225.064 10 0 59370 11700.00000 0 12021986.389 2796964.445 22337766.114 10 0 59370 12600.00000 0 10198374.903 4902622.269 22874167.401 10 0 59370 13500.00000 0 8507701.621 7165145.388 22966978.555 10 0 59370 14400.00000 0 6992535.273 9530041.260 22614332.400 10 0 59370 15300.00000 0 5685206.094 11936326.423 21822986.113 10 0 59370 16200.00000 0 4606619.245 14318867.485 20608197.593 10 0 59370 17100.00000 0 3765559.546 16610910.623 18993438.743 10 0 59370 18000.00000 0 3158516.180 18746695.428 17009950.347 10 0 59370 18900.00000 0 2770034.411 20664045.217 14696146.108 10 0 59370 19800.00000 0 2573579.408 22306826.336 12096876.313 10 0 59370 20700.00000 0 2532875.824 23627173.867 9262564.490 10 0 59370 21600.00000 0 2603666.548 24587390.535 6248233.049 10 0 59370 22500.00000 0 2735816.245 25161438.863 3112436.327 10 0 59370 23400.00000 0 2875670.408 25335963.334 -83878.247 10 0 59370 24300.00000 0 2968569.521 25110799.045 -3278558.553 10 0 59370 25200.00000 0 2961411.008 24498944.870 -6409462.088 10 0 59370 26100.00000 0 2805149.402 23526001.787 -9415671.762 10 0 59370 27000.00000 0 2457127.579 22229099.819 -12238688.624 10 0 59370 27900.00000 0 1883138.948 20655358.677 -14823577.498 10 0 59370 28800.00000 0 1059131.965 18859947.052 -17120042.304 10 0 59370 29700.00000 0 -27516.466 16903822.496 -19083409.580 10 0 59370 30600.00000 0 -1377213.812 14851247.144 -20675500.701 10 0 59370 31500.00000 0 -2977885.248 12767183.971 -21865375.590 10 0 59370 32400.00000 0 -4805239.840 10714682.922 -22629933.625 10 0 59370 33300.00000 0 -6823559.309 8752366.416 -22954360.285 10 0 59370 34200.00000 0 -8986977.013 6932119.260 -22832411.259 10 0 59370 35100.00000 0 -11241194.262 5297079.027 -22266528.937 10 0 59370 36000.00000 0 -13525562.702 3880010.089 -21267789.471 10 0 59370 36900.00000 0 -15775446.128 2702128.182 -19855681.813 10 0 59370 37800.00000 0 -17924763.455 1772423.315 -18057723.356 10 0 59370 38700.00000 0 -19908607.001 1087507.772 -15908919.827 10 0 59370 39600.00000 0 -21665826.962 631993.978 -13451080.183 10 0 59370 40500.00000 0 -23141474.415 379384.652 -10731999.899 10 0 59370 41400.00000 0 -24289001.247 293436.169 -7804528.724 10 0 59370 42300.00000 0 -25072125.254 329936.304 -4725541.207 10 0 59370 43200.00000 0 -25466282.837 438820.097 -1554830.151 10 0 59370 44100.00000 0 -25459609.170 566533.454 1646055.236 10 0 59370 45000.00000 0 -25053405.267 658543.840 4815003.701 10 0 59370 45900.00000 0 -24262073.125 661891.363 7890545.458 10 0 59370 46800.00000 0 -23112522.320 527672.083 10813041.456 10 0 59370 47700.00000 0 -21643073.335 213348.401 13525835.413 10 0 59370 48600.00000 0 -19901903.950 -315211.162 15976346.548 10 0 59370 49500.00000 0 -17945103.772 -1082049.011 18117082.400 10 0 59370 50400.00000 0 -15834418.143 -2099863.500 19906552.625 10 0 59370 51300.00000 0 -13634775.201 -3369235.158 21310066.912 10 0 59370 52200.00000 0 -11411698.550 -4878367.400 22300402.324 10 0 59370 53100.00000 0 -9228712.551 -6603353.529 22858327.813 10 0 59370 54000.00000 0 -7144847.253 -8508960.227 22972976.331 10 0 59370 54900.00000 0 -5212345.693 -10549896.286 22642057.605 10 0 59370 55800.00000 0 -3474668.047 -12672515.286 21871907.411 10 0 59370 56700.00000 0 -1964874.686 -14816882.899 20677372.068 10 0 59370 57600.00000 0 -704454.729 -16919124.225 19081529.702 10 0 59370 58500.00000 0 297351.670 -18913954.614 17115252.786 10 0 59370 59400.00000 0 1043709.467 -20737289.431 14816619.421 10 0 59370 60300.00000 0 1549817.155 -22328824.505 12230183.619 10 0 59370 61200.00000 0 1842023.277 -23634479.552 9406117.865 10 0 59370 62100.00000 0 1956468.446 -24608602.214 6399243.794 10 0 59370 63000.00000 0 1937310.420 -25215839.837 3267969.291 10 0 59370 63900.00000 0 1834607.504 -25432599.698 73152.646 10 0 59370 64800.00000 0 1701950.414 -25248035.487 -3123084.012 10 0 59370 65700.00000 0 1593943.575 -24664517.690 -6258568.395 10 0 59370 66600.00000 0 1563643.514 -23697567.310 -9272294.409 10 0 59370 67500.00000 0 1660064.010 -22375255.105 -12105616.660 10 0 59370 68400.00000 0 1925854.949 -20737091.217 -14703398.992 10 0 59370 69300.00000 0 2395254.418 -18832451.751 -17015093.811 10 0 59370 70200.00000 0 3092401.982 -16718608.442 -18995730.598 10 0 59370 71100.00000 0 4030085.617 -14458444.223 -20606793.996 10 0 59370 72000.00000 0 5208976.273 -12117950.755 -21816974.174 10 0 59370 72900.00000 0 6617383.268 -9763612.813 -22602774.990 10 0 59370 73800.00000 0 8231541.712 -7459788.954 -22948968.422 10 0 59370 74700.00000 0 10016420.479 -5266197.795 -22848886.742 10 0 59370 75600.00000 0 11927017.484 -3235614.364 -22304547.290 10 0 59370 76500.00000 0 13910088.422 -1411871.961 -21326607.801 10 0 59370 77400.00000 0 15906236.911 171748.072 -19934153.556 10 0 59370 78300.00000 0 17852278.876 1493672.772 -18154320.829 10 0 59370 79200.00000 0 19683782.490 2544693.362 -16021764.136 10 0 59370 80100.00000 0 21337677.526 3328094.715 -13577977.861 10 0 59370 81000.00000 0 22754825.096 3859254.825 -10870485.601 10 0 59370 81900.00000 0 23882440.468 4164732.977 -7951913.091 10 0 59370 82800.00000 0 24676267.583 4280886.586 -4878963.008 10 0 59370 83700.00000 0 25102414.541 4252076.539 -1711311.738 10 0 59370 84600.00000 0 25138773.283 4128538.011 1489550.293 10 0 59370 85500.00000 0 24775964.361 3964007.694 4661511.894 10 0 59371 0.00000 0 24017767.805 3813208.454 7743044.561 10 0 59371 900.00000 0 22881021.901 3729298.436 10674393.192 10 0 59371 1800.00000 0 21394995.431 3761391.792 13398730.029 10 0 59371 2700.00000 0 19600258.373 3952257.431 15863250.946 10 0 59371 3600.00000 0 17547099.674 4336291.220 18020192.551 10 0 59371 4500.00000 0 15293557.105 4937848.377 19827751.191 10 0 59371 5400.00000 0 12903141.285 5770005.903 21250886.873 10 0 59371 6300.00000 0 10442347.860 6833807.661 22261997.281 10 0 59371 7200.00000 0 7978060.549 8118024.383 22841449.530 10 0 59371 8100.00000 0 5574951.973 9599439.668 22977959.928 10 0 59371 9000.00000 0 3292989.072 11243651.245 22668814.692 10 0 59371 9900.00000 0 1185145.757 13006355.409 21919927.337 10 0 59371 10800.00000 0 -704583.327 14835062.535 20745731.288 10 0 59371 11700.00000 0 -2342786.212 16671173.593 19168909.139 10 0 59371 12600.00000 0 -3707788.186 18452332.252 17219962.921 10 0 59371 13500.00000 0 -4790310.050 20114955.473 14936632.654 10 0 59371 14400.00000 0 -5593603.001 21596837.514 12363173.350 10 0 59371 15300.00000 0 -6133054.839 22839718.709 9549503.538 10 0 59371 16200.00000 0 -6435284.380 23791711.274 6550241.045 10 0 59371 17100.00000 0 -6536762.525 24409479.937 3423644.224 10 0 59371 18000.00000 0 -6482018.492 24660084.989 230479.136 10 0 59371 18900.00000 0 -6321507.573 24522409.280 -2967165.107 10 0 59371 19800.00000 0 -6109231.286 23988108.038 -6107089.331 10 0 59371 20700.00000 0 -5900211.550 23062040.478 -9128201.147 10 0 59371 21600.00000 0 -5747926.895 21762164.098 -11971711.167 10 0 59371 22500.00000 0 -5701820.449 20118895.329 -14582284.405 10 0 59371 23400.00000 0 -5804986.384 18173962.944 -16909123.564 10 0 59371 24300.00000 0 -6092133.872 15978802.052 -18906962.531 10 0 59371 25200.00000 0 -6587915.747 13592555.924 -20536950.345 10 0 59371 26100.00000 0 -7305693.385 11079769.393 -21767408.211 10 0 59371 27000.00000 0 -8246790.715 8507870.373 -22574444.946 10 0 59371 27900.00000 0 -9400269.517 5944544.650 -22942419.159 10 0 59371 28800.00000 0 -10743235.923 3455113.462 -22864239.505 10 0 59371 29700.00000 0 -12241665.709 1100022.834 -22341497.701 10 0 59371 30600.00000 0 -13851714.023 -1067451.331 -21384432.094 10 0 59371 31500.00000 0 -15521454.807 -3003187.543 -20011722.936 10 0 59371 32400.00000 0 -17192977.155 -4673810.899 -18250123.650 10 0 59371 33300.00000 0 -18804750.821 -6057828.147 -16133935.470 10 0 59371 34200.00000 0 -20294161.720 -7146259.774 -13704335.883 10 0 59371 35100.00000 0 -21600111.223 -7942744.541 -11008574.079 10 0 59371 36000.00000 0 -22665570.263 -8463113.961 -8099049.171 10 0 59371 36900.00000 0 -23439981.101 -8734456.313 -5032289.325 10 0 59371 37800.00000 0 -23881406.084 -8793711.334 -1867851.851 10 0 59371 38700.00000 0 -23958333.233 -8685856.271 1332834.253 10 0 59371 39600.00000 0 -23651063.069 -8461761.049 4507660.424 10 0 59371 40500.00000 0 -22952618.669 -8175804.111 7595042.117 10 0 59371 41400.00000 0 -21869140.907 -7883350.244 10535110.417 10 0 59371 42300.00000 0 -20419752.499 -7638197.288 13270868.547 10 0 59371 43200.00000 0 -18635896.420 -7490099.678 15749291.257 10 0 59371 44100.00000 0 -16560176.268 -7482473.286 17922346.199 10 0 59371 45000.00000 0 -14244746.678 -7650378.225 19747918.101 10 0 59371 45900.00000 0 -11749320.306 -8018864.485 21190618.637 10 0 59371 46800.00000 0 -9138873.573 -8601750.058 22222467.080 10 0 59371 47700.00000 0 -6481145.640 -9400883.143 22823429.277 10 0 59371 48600.00000 0 -3844033.376 -10405919.941 22981805.062 10 0 59371 49500.00000 0 -1292989.171 -11594628.232 22694456.955 10 0 59371 50400.00000 0 1111471.525 -12933705.071 21966875.677 10 0 59371 51300.00000 0 3316050.710 -14380075.727 20813080.926 10 0 59371 52200.00000 0 5276642.718 -15882620.882 19255358.644 10 0 59371 53100.00000 0 6959922.182 -17384261.132 17323839.023 10 0 59371 54000.00000 0 8344479.657 -18824312.690 15055922.347 10 0 59371 54900.00000 0 9421458.090 -20141016.486 12495562.689 10 0 59371 55800.00000 0 10194663.837 -21274135.079 9692422.423 10 0 59371 56700.00000 0 10680147.978 -22167508.443 6700913.124 10 0 59371 57600.00000 0 10905275.809 -22771460.912 3579140.958 10 0 59371 58500.00000 0 10907324.064 -23044957.268 387776.968 10 0 59371 59400.00000 0 10731665.524 -22957416.246 -2811125.631 10 0 59371 60300.00000 0 10429618.372 -22490103.827 -5955343.665 10 0 59371 61200.00000 0 10056051.990 -21637046.390 -8983701.313 10 0 59371 62100.00000 0 9666851.497 -20405424.034 -11837267.963 10 0 59371 63000.00000 0 9316349.384 -18815426.398 -14460512.440 10 0 59371 63900.00000 0 9054834.032 -16899576.217 -16802390.197 10 0 59371 64800.00000 0 8926241.564 -14701548.343 -18817341.733 10 0 59371 65700.00000 0 8966129.591 -12274533.318 -20466182.373 10 0 59371 66600.00000 0 9200019.239 -9679213.844 -21716865.869 10 0 59371 67500.00000 0 9642176.088 -6981438.579 -22545107.082 10 0 59371 68400.00000 0 10294881.882 -4249690.267 -22934851.872 10 0 59371 69300.00000 0 11148228.007 -1552453.685 -22878585.443 10 0 59371 70200.00000 0 12180439.590 1044407.242 -22377473.594 10 0 59371 71100.00000 0 13358716.709 3480154.498 -21441334.582 10 0 59371 72000.00000 0 14640557.315 5701459.490 -20088442.538 10 0 59371 72900.00000 0 15975506.288 7664371.010 -18345166.588 10 0 59371 73800.00000 0 17307257.045 9335886.832 -16245452.893 10 0 59371 74700.00000 0 18576017.351 10695064.811 -13830159.938 10 0 59371 75600.00000 0 19721039.808 11733628.760 -11146260.100 10 0 59371 76500.00000 0 20683210.583 12456045.496 -8245923.148 10 0 59371 77400.00000 0 21407587.560 12879071.720 -5185499.782 10 0 59371 78300.00000 0 21845781.072 13030791.444 -2024425.097 10 0 59371 79200.00000 0 21958077.006 12949186.073 1175936.543 10 0 59371 80100.00000 0 21715213.136 12680298.876 4353482.442 10 0 59371 81000.00000 0 21099734.003 12276072.364 7446575.058 10 0 59371 81900.00000 0 20106867.438 11791950.663 10395234.674 10 0 59371 82800.00000 0 18744885.845 11284348.504 13142298.104 10 0 59371 83700.00000 0 17034936.957 10808093.889 15634521.312 10 0 59371 84600.00000 0 15010350.783 10413952.235 17823605.030 10 0 59371 85500.00000 0 12715451.282 10146336.115 19667124.069 10 0 59372 0.00000 0 10203921.629 10041296.731 21129343.116 10 0 59372 900.00000 0 7536789.974 10124881.677 22181904.110 10 0 59372 1800.00000 0 4780118.999 10411926.843 22804372.272 10 0 59372 2700.00000 0 2002493.317 10905335.110 22984631.224 10 0 59372 3600.00000 0 -727592.073 11595870.507 22719119.623 10 0 59372 4500.00000 0 -3344335.162 12462478.480 22012904.773 10 0 59372 5400.00000 0 -5787115.586 13473119.141 20879591.528 10 0 59372 6300.00000 0 -8002766.386 14586079.900 19341067.600 10 0 59372 7200.00000 0 -9947535.389 15751713.508 17427089.310 10 0 59372 8100.00000 0 -11588655.383 16914529.773 15174714.788 10 0 59372 9000.00000 0 -12905458.245 18015554.052 12627594.456 10 0 59372 9900.00000 0 -13889986.771 18994854.019 9835131.605 10 0 59372 10800.00000 0 -14547078.936 19794128.710 6851528.519 10 0 59372 11700.00000 0 -14893921.291 20359250.656 3734736.096 10 0 59372 12600.00000 0 -14959090.490 20642653.392 545327.296 10 0 59372 13500.00000 0 -14781123.736 20605462.756 -2654683.563 10 0 59372 14400.00000 0 -14406678.962 20219280.850 -5803052.204 10 0 59372 15300.00000 0 -13888363.112 19467546.077 -8838522.110 10 0 59372 16200.00000 0 -13282321.208 18346410.489 -11702023.976 10 0 59372 17100.00000 0 -12645689.058 16865096.139 -14337832.708 10 0 59372 18000.00000 0 -12034018.344 15045714.261 -16694658.479 10 0 59372 18900.00000 0 -11498783.904 12922553.924 -18726650.032 10 0 59372 19800.00000 0 -11085079.395 10540869.170 -20394290.254 10 0 59372 20700.00000 0 -10829599.350 7955214.995 -21665166.366 10 0 59372 21600.00000 0 -10758993.243 5227401.318 -22514599.825 10 0 59372 22500.00000 0 -10888661.264 2424150.094 -22926123.951 10 0 59372 23400.00000 0 -11222042.607 -385446.948 -22891800.323 10 0 59372 24300.00000 0 -11750426.145 -3132564.361 -22412368.285 10 0 59372 25200.00000 0 -12453291.274 -5751263.546 -21497225.082 10 0 59372 26100.00000 0 -13299164.254 -8180989.305 -20164237.421 10 0 59372 27000.00000 0 -14246953.730 -10368839.292 -18439388.465 10 0 59372 27900.00000 0 -15247708.889 -12271512.909 -16356267.332 10 0 59372 28800.00000 0 -16246725.959 -13856859.578 -13955411.270 10 0 59372 29700.00000 0 -17185914.087 -15104963.232 -11283513.412 10 0 59372 30600.00000 0 -18006320.756 -16008719.376 -8392511.667 10 0 59372 31500.00000 0 -18650710.175 -16573882.144 -5338576.696 10 0 59372 32400.00000 0 -19066085.798 -16818581.099 -2181018.773 10 0 59372 33300.00000 0 -19206050.665 -16772329.800 1018864.956 10 0 59372 34200.00000 0 -19032905.923 -16474569.198 4198980.189 10 0 59372 35100.00000 0 -18519399.141 -15972808.570 7297638.904 10 0 59372 36000.00000 0 -17650048.802 -15320443.313 10254753.050 10 0 59372 36900.00000 0 -16421989.056 -14574342.163 13012995.419 10 0 59372 37800.00000 0 -14845299.035 -13792305.886 15518905.441 10 0 59372 38700.00000 0 -12942802.480 -13030504.531 17723918.990 10 0 59372 39600.00000 0 -10749345.474 -12341000.907 19585302.783 10 0 59372 40500.00000 0 -8310581.630 -11769464.092 21066976.070 10 0 59372 41400.00000 0 -5681314.286 -11353168.595 22140204.523 10 0 59372 42300.00000 0 -2923463.530 -11119362.791 22784153.562 10 0 59372 43200.00000 0 -103741.131 -11084074.771 22986291.036 10 0 59372 44100.00000 0 2708871.617 -11251405.639 22742631.801 10 0 59372 45000.00000 0 5445739.894 -11613340.042 22057819.468 10 0 59372 45900.00000 0 8041178.133 -12150082.349 20945043.468 10 0 59372 46800.00000 0 10434932.866 -12830905.045 19425792.391 10 0 59372 47700.00000 0 12574443.477 -13615474.601 17529447.505 10 0 59372 48600.00000 0 14416787.701 -14455600.040 15292723.300 10 0 59372 49500.00000 0 15930231.414 -15297331.527 12758964.731 10 0 59372 50400.00000 0 17095318.305 -16083321.309 9977313.859 10 0 59372 51300.00000 0 17905454.087 -16755347.898 7001761.192 10 0 59372 52200.00000 0 18366960.889 -17256897.043 3890099.579 10 0 59372 53100.00000 0 18498599.593 -17535690.120 702800.876 10 0 59372 54000.00000 0 18330580.455 -17546052.395 -2498162.658 10 0 59372 54900.00000 0 17903104.025 -17251019.973 -5650528.861 10 0 59372 55800.00000 0 17264494.383 -16624095.106 -8692963.677 10 0 59372 56700.00000 0 16469004.232 -15650574.247 -11566262.146 10 0 59372 57600.00000 0 15574385.331 -14328391.332 -14214508.077 10 0 59372 58500.00000 0 14639327.795 -12668439.350 -16586168.942 10 0 59372 59400.00000 0 13720877.293 -10694355.415 -18635103.999 10 0 59372 60300.00000 0 12871939.950 -8441777.267 -20321465.630 10 0 59372 61200.00000 0 12138980.840 -5957101.617 -21612476.071 10 0 59372 62100.00000 0 11560013.510 -3295795.591 -22483064.499 10 0 59372 63000.00000 0 11162965.375 -520331.331 -22916352.372 10 0 59372 63900.00000 0 10964487.726 2302170.415 -22903977.864 10 0 59372 64800.00000 0 10969260.098 5102489.929 -22446253.637 10 0 59372 65700.00000 0 11169817.790 7811945.674 -21552155.262 10 0 59372 66600.00000 0 11546909.166 10365009.598 -20239140.967 10 0 59372 67500.00000 0 12070367.031 12701792.468 -18532806.518 10 0 59372 68400.00000 0 12700456.750 14770296.548 -16466382.205 10 0 59372 69300.00000 0 13389643.654 16528342.717 -14080081.927 10 0 59372 70200.00000 0 14084704.714 17945092.791 -11420317.149 10 0 59372 71100.00000 0 14729094.957 19002104.915 -8538791.200 10 0 59372 72000.00000 0 15265468.441 19693879.267 -5491491.714 10 0 59372 72900.00000 0 15638247.087 20027872.803 -2337601.033 10 0 59372 73800.00000 0 15796128.712 20023983.880 861654.151 10 0 59372 74700.00000 0 15694428.222 19713529.882 4044191.207 10 0 59372 75600.00000 0 15297153.173 19137762.297 7148274.770 10 0 59372 76500.00000 0 14578725.975 18345982.636 10113711.436 10 0 59372 77400.00000 0 13525280.059 17393339.304 12883012.703 10 0 59372 78300.00000 0 12135475.205 16338398.616 15402503.916 10 0 59372 79200.00000 0 10420797.285 15240592.194 17623358.229 10 0 59372 80100.00000 0 8405329.267 14157647.960 19502536.068 10 0 59372 81000.00000 0 6125002.156 13143112.181 21003612.713 10 0 59372 81900.00000 0 3626355.980 12244066.030 22097478.747 10 0 59372 82800.00000 0 964861.211 11499131.782 22762900.550 10 0 59372 83700.00000 0 -1797131.080 10936851.624 22986930.557 10 0 59372 84600.00000 0 -4592726.803 10574506.518 22765159.762 10 0 59372 85500.00000 0 -7353018.625 10417424.326 22101807.544 10 0 59373 0.00000 0 -10009704.558 10458806.155 21009646.908 10 0 59373 900.00000 0 -12497688.075 10680078.606 19509765.713 10 0 59373 1800.00000 0 -14757552.958 11051756.976 17631168.196 10 0 59373 2700.00000 0 -16737810.335 11534784.789 15410222.742 10 0 59373 3600.00000 0 -18396825.902 12082292.830 12889966.048 10 0 59373 4500.00000 0 -19704346.249 12641704.885 10119275.908 10 0 59373 5400.00000 0 -20642561.144 13157101.443 7151927.883 10 0 59373 6300.00000 0 -21206657.063 13571741.708 4045553.564 10 0 59373 7200.00000 0 -21404838.661 13830637.069 860520.533 10 0 59373 8100.00000 0 -21257817.244 13883066.562 -2341244.090 10 0 59373 9000.00000 0 -20797787.841 13684926.907 -5497463.205 10 0 59373 9900.00000 0 -20066938.266 13200816.478 -8546728.006 10 0 59373 10800.00000 0 -19115553.471 12405763.625 -11429700.460 10 0 59373 11700.00000 0 -17999795.816 11286524.758 -14090275.634 10 0 59373 12600.00000 0 -16779255.639 9842395.952 -16476680.344 10 0 59373 13500.00000 0 -15514376.251 8085502.395 -18542486.075 10 0 59373 14400.00000 0 -14263862.595 6040552.233 -20247516.030 10 0 59373 15300.00000 0 -13082183.382 3744064.091 -21558628.365 10 0 59373 16200.00000 0 -12017272.198 1243099.756 -22450360.475 10 0 59373 17100.00000 0 -11108524.396 -1406445.730 -22905422.017 10 0 59373 18000.00000 0 -10385173.841 -4141925.621 -22915027.426 10 0 59373 18900.00000 0 -9865117.263 -6896308.370 -22479061.943 10 0 59373 19800.00000 0 -9554234.899 -9600731.727 -21606078.361 10 0 59373 20700.00000 0 -9446235.144 -12187138.016 -20313124.964 10 0 59373 21600.00000 0 -9523028.722 -14590881.466 -18625408.359 10 0 59373 22500.00000 0 -9755615.598 -16753199.637 -16575797.988 10 0 59373 23400.00000 0 -10105446.299 -18623446.599 -14204182.161 10 0 59373 24300.00000 0 -10526199.330 -20160995.741 -11556688.324 10 0 59373 25200.00000 0 -10965898.936 -21336733.800 -8684782.821 10 0 59373 26100.00000 0 -11369283.123 -22134084.760 -5644267.869 10 0 59373 27000.00000 0 -11680321.433 -22549522.140 -2494195.479 10 0 59373 27900.00000 0 -11844775.666 -22592549.444 704280.444 10 0 59373 28800.00000 0 -11812695.050 -22285150.928 3889091.192 10 0 59373 29700.00000 0 -11540740.284 -21660737.043 6998456.314 10 0 59373 30600.00000 0 -10994238.140 -20762629.915 9972079.272 10 0 59373 31500.00000 0 -10148879.827 -19642153.347 12752312.424 10 0 59373 32400.00000 0 -8991991.246 -18356408.086 15285269.117 10 0 59373 33300.00000 0 -7523321.325 -16965826.037 17521861.752 10 0 59373 34200.00000 0 -5755314.739 -15531606.016 19418746.261 10 0 59373 35100.00000 0 -3712856.753 -14113138.164 20939155.515 10 0 59373 36000.00000 0 -1432499.717 -12765524.351 22053606.315 10 0 59373 36900.00000 0 1038797.788 -11537297.644 22740466.988 10 0 59373 37800.00000 0 3645368.175 -10468435.455 22986375.246 10 0 59373 38700.00000 0 6324899.568 -9588748.703 22786498.580 10 0 59373 39600.00000 0 9010783.821 -8916713.757 22144632.195 10 0 59373 40500.00000 0 11634651.998 -8458795.605 21073132.352 10 0 59373 41400.00000 0 14128993.552 -8209290.321 19592685.767 10 0 59373 42300.00000 0 16429751.509 -8150693.547 17731918.708 10 0 59373 43200.00000 0 18478786.734 -8254579.625 15526852.304 10 0 59373 44100.00000 0 20226109.271 -8482954.806 13020213.470 10 0 59373 45000.00000 0 21631783.886 -8790027.876 10260613.851 10 0 59373 45900.00000 0 22667430.262 -9124323.765 7301611.797 10 0 59373 46800.00000 0 23317254.843 -9431050.945 4200675.017 10 0 59373 47700.00000 0 23578570.692 -9654622.331 1018063.884 10 0 59373 48600.00000 0 23461783.311 -9741222.438 -2184342.789 10 0 59373 49500.00000 0 22989842.757 -9641311.286 -5344256.248 10 0 59373 50400.00000 0 22197185.123 -9311957.877 -8400196.237 10 0 59373 51300.00000 0 21128208.123 -8718903.104 -11292694.836 10 0 59373 52200.00000 0 19835345.414 -7838263.309 -13965461.366 10 0 59373 53100.00000 0 18376821.342 -6657801.001 -16366484.725 10 0 59373 54000.00000 0 16814181.319 -5177707.561 -18449051.065 10 0 59373 54900.00000 0 15209702.437 -3410863.581 -20172656.514 10 0 59373 55800.00000 0 13623793.808 -1382564.666 -21503796.922 10 0 59373 56700.00000 0 12112496.263 870276.847 -22416619.295 10 0 59373 57600.00000 0 10725186.525 3300421.719 -22893422.503 10 0 59373 58500.00000 0 9502582.046 5852031.882 -22924997.837 10 0 59373 59400.00000 0 8475129.744 8462765.171 -22510803.297 10 0 59373 60300.00000 0 7661845.382 11066149.875 -21658968.641 10 0 59373 61200.00000 0 7069651.314 13594140.421 -20386131.534 10 0 59373 62100.00000 0 6693239.150 15979748.199 -18717108.320 10 0 59373 63000.00000 0 6515461.759 18159638.369 -16684406.073 10 0 59373 63900.00000 0 6508236.836 20076584.825 -14327585.624 10 0 59373 64800.00000 0 6633922.630 21681681.613 -11692488.132 10 0 59373 65700.00000 0 6847106.724 22936219.138 -8830340.308 10 0 59373 66600.00000 0 7096731.305 23813147.755 -5796756.015 10 0 59373 67500.00000 0 7328464.428 24298068.338 -2650653.767 10 0 59373 68400.00000 0 7487216.293 24389709.378 546888.665 10 0 59373 69300.00000 0 7519693.781 24099871.795 3733819.920 10 0 59373 70200.00000 0 7376884.859 23452844.829 6848317.833 10 0 59373 71100.00000 0 7016367.678 22484318.526 9829985.953 10 0 59373 72000.00000 0 6404346.674 21239839.196 12621020.535 10 0 59373 72900.00000 0 5517329.566 19772873.242 15167325.686 10 0 59373 73800.00000 0 4343374.282 18142560.775 17419555.517 10 0 59373 74700.00000 0 2882852.942 16411253.189 19334063.602 10 0 59373 75600.00000 0 1148700.080 14641937.387 20873742.201 10 0 59373 76500.00000 0 -833866.269 12895653.826 22008735.765 10 0 59373 77400.00000 0 -3028140.178 11229015.513 22717015.620 10 0 59373 78300.00000 0 -5387208.430 9691930.631 22984805.381 10 0 59373 79200.00000 0 -7855664.426 8325622.924 22806849.203 10 0 59373 80100.00000 0 -10371685.780 7161031.629 22186517.782 10 0 59373 81000.00000 0 -12869390.907 6217657.006 21135749.799 10 0 59373 81900.00000 0 -15281378.289 5502899.148 19674829.347 10 0 59373 82800.00000 0 -17541344.041 5011917.398 17832002.818 10 0 59373 83700.00000 0 -19586669.960 4728016.102 15642941.627 10 0 59373 84600.00000 0 -21360874.894 4623540.484 13150060.051 10 0 59373 85500.00000 0 -22815827.392 4661245.078 10401700.396 99